FW9486 Weather Reports


Display with metric or nautical units.
time (UTC)temp
F
wind
direction
speed
MPH
gust
MPH
rain 1hr
in
rain 24hr
in
rain mn
in
humidity
%
barometer
mb
20260505034536 63 1 2.0 9.0 0.00 0.00 0.00 37 1004.7
20260505033037 63 30 3.0 12.0 0.00 0.00 0.00 37 1004.5
20260505031530 63 316 1.0 8.0 0.00 0.00 0.00 37 1004.3
20260505030037 64 345 3.0 8.0 0.00 0.00 0.00 35 1004.2
20260505024541 65 23 2.0 10.0 0.00 0.00 0.00 34 1003.9
20260505023035 66 58 3.0 7.0 0.00 0.00 0.00 33 1003.7
20260505021537 66 27 3.0 8.0 0.00 0.00 0.00 32 1003.7
20260505020037 67 26 2.0 8.0 0.00 0.00 0.00 31 1003.7
20260505014537 68 37 3.0 8.0 0.00 0.00 0.00 28 1003.8
20260505013036 69 345 4.0 9.0 0.00 0.00 0.00 27 1003.8
20260505011534 69 45 1.0 8.0 0.00 0.00 0.00 26 1003.9
20260505010038 71 25 2.0 6.0 0.00 0.00 0.00 25 1003.8
20260505004536 72 205 4.0 11.0 0.00 0.00 0.00 26 1003.8
20260505003035 73 75 2.0 12.0 0.00 0.00 0.00 25 1003.7
20260505001535 74 67 3.0 7.0 0.00 0.00 0.00 24 1003.7
20260505000043 74 22 2.0 9.0 0.00 0.00 0.00 23 1003.6
20260504234535 74 1 2.0 11.0 0.00 0.00 0.00 25 1003.7
20260504233042 74 276 3.0 9.0 0.00 0.00 0.00 28 1003.9
20260504231542 75 188 3.0 9.0 0.00 0.00 0.00 26 1004.2
20260504230046 75 86 3.0 8.0 0.00 0.00 0.00 23 1004.2
20260504224534 74 161 3.0 13.0 0.00 0.00 0.00 27 1004.1
20260504223038 75 352 3.0 11.0 0.00 0.00 0.00 24 1004.3
20260504221535 75 108 3.0 11.0 0.00 0.00 0.00 24 1004.4
20260504220038 75 36 4.0 9.0 0.00 0.00 0.00 23 1004.5
20260504214535 75 64 1.0 7.0 0.00 0.00 0.00 25 1004.6
20260504213035 75 290 1.0 6.0 0.00 0.00 0.00 27 1004.7
20260504211537 75 142 3.0 9.0 0.00 0.00 0.00 25 1004.9
20260504210044 75 37 4.0 13.0 0.00 0.00 0.00 26 1005.0
20260504204538 74 55 2.0 11.0 0.00 0.00 0.00 28 1004.9
20260504203050 75 160 2.0 10.0 0.00 0.00 0.00 25 1004.9
20260504201535 74 114 2.0 9.0 0.00 0.00 0.00 25 1005.2
20260504200035 74 52 2.0 12.0 0.00 0.00 0.00 24 1005.2
20260504194537 74 71 1.0 8.0 0.00 0.00 0.00 27 1005.3
20260504193035 73 155 3.0 8.0 0.00 0.00 0.00 26 1005.4
20260504191536 72 117 2.0 11.0 0.00 0.00 0.00 29 1005.5
20260504190047 72 12 5.0 11.0 0.00 0.00 0.00 29 1005.5
20260504184535 72 304 2.0 11.0 0.00 0.00 0.00 30 1005.9
20260504183037 72 335 3.0 9.0 0.00 0.00 0.00 29 1005.9
20260504181541 71 21 3.0 6.0 0.00 0.00 0.00 30 1006.1
20260504180036 71 92 2.0 11.0 0.00 0.00 0.00 30 1006.2
20260504174536 70 39 3.0 9.0 0.00 0.00 0.00 30 1006.3
20260504173037 65 245 2.0 4.0 0.00 0.00 0.00 44 1006.5
20260504171539 63 135 1.0 4.0 0.00 0.00 0.00 53 1006.6
20260504081545 46 0 0.0 0.0 0.00 0.00 0.00 70 1007.8
20260504044536 59 353 0.0 6.0 0.00 0.00 0.00 45 1007.8
20260504043039 60 0 0.0 5.0 0.00 0.00 0.00 44 1007.8
20260504041540 61 0 0.0 5.0 0.00 0.00 0.00 43 1007.7
20260504040043 61 0 0.0 2.0 0.00 0.00 0.00 43 1007.6